Total_Precipitation_Accumulation
0.87 0.54 0.98 0.94 0.80 0.69 0.64 0.66 0.65 0.64 0.63 0.57 0.52 0.50 0.46 0.42 0.37 0.38 0.37 0.32 0.30 0.32 0.37 0.41 0.41 0.43 0.41 0.41 0.44 0.50 0.51 0.52 0.47 0.37 0.34 0.38 0.44 0.51 0.66 0.80 1.07 1.42 1.03
0.56 0.43 0.86 0.95 0.80 0.71 0.65 0.62 0.61 0.60 0.58 0.54 0.51 0.51 0.49 0.44 0.40 0.38 0.35 0.33 0.31 0.31 0.33 0.38 0.43 0.46 0.48 0.49 0.57 0.64 0.61 0.57 0.58 0.55 0.59 0.68 0.61 0.58 0.60 0.74 1.15 1.41 1.03
0.43 0.39 0.59 0.91 0.82 0.76 0.75 0.69 0.59 0.60 0.57 0.51 0.52 0.51 0.52 0.47 0.42 0.39 0.38 0.35 0.32 0.31 0.31 0.37 0.45 0.51 0.52 0.60 0.66 0.70 0.71 0.69 0.68 0.68 0.98 1.48 1.13 0.78 0.76 0.81 0.88 0.93 0.94
0.35 0.36 0.51 0.86 0.85 0.83 0.79 0.72 0.70 0.70 0.63 0.61 0.64 0.60 0.59 0.54 0.46 0.41 0.40 0.36 0.35 0.36 0.39 0.41 0.46 0.54 0.58 0.61 0.63 0.63 0.65 0.70 0.77 0.71 1.07 1.49 1.49 1.10 0.95 0.96 0.84 0.87 0.99
0.37 0.41 0.65 0.91 0.87 0.84 0.76 0.74 0.80 0.77 0.69 0.67 0.66 0.64 0.64 0.59 0.56 0.47 0.42 0.41 0.41 0.46 0.50 0.48 0.50 0.55 0.62 0.65 0.62 0.60 0.63 0.81 0.76 0.68 0.93 1.20 1.55 1.29 1.03 1.05 0.95 0.93 1.02
0.49 0.46 0.61 0.80 0.86 0.83 0.72 0.74 0.83 0.76 0.71 0.63 0.57 0.58 0.59 0.57 0.57 0.50 0.50 0.51 0.49 0.52 0.58 0.61 0.63 0.65 0.66 0.67 0.64 0.69 0.79 0.82 0.70 0.88 1.00 1.20 1.45 1.28 1.01 0.96 1.03 1.09 1.16
0.48 0.40 0.47 0.72 0.77 0.75 0.72 0.78 0.87 0.80 0.73 0.62 0.55 0.58 0.60 0.59 0.57 0.55 0.56 0.57 0.55 0.53 0.57 0.63 0.67 0.67 0.64 0.66 0.66 0.68 0.76 0.77 0.83 1.01 1.02 1.21 1.23 1.13 0.97 0.90 1.06 1.14 1.20
0.70 0.56 0.54 0.73 0.78 0.75 0.78 0.81 0.88 0.88 0.77 0.64 0.58 0.58 0.56 0.56 0.56 0.57 0.58 0.59 0.59 0.58 0.61 0.63 0.63 0.62 0.57 0.58 0.59 0.59 0.71 0.71 0.72 0.86 0.96 1.16 1.20 1.12 0.90 0.85 0.95 1.08 1.20
1.05 0.95 0.85 0.80 0.75 0.77 0.83 0.80 0.95 1.09 0.93 0.75 0.66 0.66 0.58 0.54 0.53 0.54 0.54 0.60 0.61 0.63 0.62 0.62 0.64 0.63 0.60 0.57 0.57 0.62 0.73 0.69 0.64 0.76 0.78 1.07 1.24 1.17 0.99 0.91 0.92 1.06 1.21
1.03 0.95 0.95 1.03 1.01 1.00 1.01 1.07 1.19 1.50 1.38 1.00 0.81 0.70 0.65 0.58 0.55 0.59 0.56 0.59 0.65 0.67 0.69 0.72 0.71 0.70 0.71 0.66 0.63 0.70 0.73 0.58 0.57 0.57 0.65 0.85 1.25 1.19 1.01 0.90 0.86 0.89 1.03
0.78 0.82 0.88 0.94 0.96 0.98 0.96 1.13 1.38 1.67 1.73 1.38 1.10 0.95 0.78 0.55 0.57 0.65 0.59 0.69 0.74 0.77 0.80 0.86 0.86 0.80 0.80 0.71 0.70 0.72 0.61 0.44 0.63 0.65 0.69 0.87 1.17 1.17 0.97 0.77 0.69 0.73 0.80
0.60 0.57 0.58 0.62 0.67 0.72 0.77 1.04 1.27 1.33 1.53 1.31 1.28 1.13 0.98 0.92 0.87 0.69 0.64 0.79 0.86 0.87 0.86 0.91 0.96 0.81 0.68 0.56 0.59 0.61 0.41 0.40 0.57 0.61 0.61 0.96 1.25 1.23 1.00 0.79 0.68 0.70 0.70
0.55 0.52 0.45 0.46 0.48 0.54 0.67 0.88 1.10 1.23 1.40 1.41 1.39 1.33 1.32 1.27 0.94 0.78 0.85 0.88 0.90 0.89 0.79 0.84 0.84 0.64 0.52 0.48 0.52 0.46 0.37 0.40 0.50 0.60 0.70 0.98 1.28 1.29 1.03 0.83 0.71 0.69 0.71
0.50 0.56 0.49 0.37 0.37 0.39 0.47 0.66 0.86 1.07 1.26 1.31 1.14 1.06 1.19 1.20 1.01 0.88 1.01 1.09 1.06 1.01 1.01 1.02 0.93 0.77 0.58 0.51 0.48 0.48 0.44 0.47 0.55 0.64 0.77 0.78 1.08 1.23 1.14 0.94 0.79 0.69 0.75
0.47 0.54 0.56 0.48 0.40 0.39 0.44 0.51 0.58 0.87 1.05 1.20 1.25 1.03 1.15 1.19 1.12 0.98 0.93 1.10 1.06 1.05 1.06 1.07 1.03 0.91 0.78 0.63 0.60 0.56 0.61 0.60 0.59 0.57 0.72 0.69 0.84 1.10 1.22 1.14 0.99 0.83 0.79
0.40 0.47 0.52 0.55 0.54 0.50 0.49 0.51 0.51 0.56 0.67 0.79 0.76 0.73 0.92 1.04 1.00 1.00 0.87 0.93 1.00 1.10 1.26 1.25 1.08 1.01 0.90 0.77 0.76 0.73 0.73 0.70 0.69 0.59 0.68 0.71 0.62 0.69 0.90 1.12 1.18 1.07 0.96
0.39 0.42 0.47 0.54 0.61 0.62 0.63 0.71 0.64 0.59 0.64 0.64 0.60 0.61 0.72 0.83 0.85 0.97 0.95 0.91 0.93 1.11 1.28 1.35 1.24 1.16 0.97 0.87 0.85 0.82 0.74 0.79 0.80 0.70 0.69 0.75 0.63 0.53 0.67 0.96 1.18 1.23 1.13
0.38 0.37 0.39 0.43 0.48 0.53 0.60 0.68 0.73 0.73 0.75 0.71 0.74 0.70 0.66 0.79 0.91 1.03 1.06 0.97 0.96 1.13 1.29 1.39 1.44 1.41 1.27 1.14 1.03 0.92 0.85 0.95 0.91 0.79 0.76 0.80 0.80 0.66 0.66 0.71 0.89 1.13 1.25
0.37 0.33 0.31 0.32 0.32 0.35 0.42 0.54 0.65 0.72 0.80 0.86 0.88 0.86 0.84 0.88 0.92 1.06 1.20 1.20 1.19 1.26 1.30 1.31 1.37 1.33 1.32 1.27 1.14 1.08 0.98 1.01 1.03 0.90 0.87 0.92 0.91 0.88 0.79 0.60 0.61 0.66 0.95
0.30 0.31 0.30 0.31 0.30 0.27 0.31 0.45 0.56 0.63 0.71 0.87 0.94 1.01 1.27 1.36 1.14 1.11 1.21 1.23 1.26 1.39 1.39 1.49 1.62 1.47 1.33 1.37 1.32 1.21 1.09 1.03 0.97 0.98 1.03 1.06 1.03 0.95 0.89 0.76 0.68 0.49 0.62
0.16 0.15 0.18 0.24 0.31 0.29 0.26 0.33 0.44 0.53 0.67 0.81 0.97 1.04 1.27 1.38 1.28 1.30 1.30 1.29 1.30 1.33 1.37 1.53 1.79 1.70 1.51 1.42 1.56 1.49 1.29 1.10 1.01 0.99 1.00 1.13 1.16 1.08 1.04 1.08 0.89 0.70 0.54
0.09 0.09 0.12 0.16 0.25 0.32 0.36 0.41 0.53 0.71 0.83 0.93 1.06 1.13 1.24 1.26 1.26 1.19 1.33 1.42 1.36 1.43 1.50 1.64 1.84 1.91 1.73 1.59 1.79 2.08 1.80 1.47 1.11 0.99 0.98 0.99 1.12 1.15 1.08 1.00 0.95 0.88 0.72
0.05 0.07 0.12 0.20 0.33 0.50 0.66 0.88 1.13 1.41 1.53 1.42 1.27 1.34 1.47 1.53 1.49 1.42 1.49 1.62 1.54 1.55 1.59 1.63 1.67 1.98 2.06 1.89 1.87 2.26 2.00 1.77 1.69 1.21 0.92 0.88 1.10 1.21 1.19 1.08 0.97 1.03 1.01
0.12 0.19 0.29 0.41 0.57 0.74 0.95 1.17 1.43 1.66 1.82 1.84 1.86 1.89 1.87 1.82 1.70 1.59 1.58 1.63 1.64 1.69 1.61 1.51 1.64 1.97 2.31 2.27 2.11 1.94 1.74 1.63 1.81 1.66 1.14 0.90 1.02 1.15 1.25 1.17 1.08 1.10 1.15
0.29 0.42 0.53 0.76 0.93 1.07 1.13 1.23 1.45 1.56 1.63 1.74 1.88 1.93 1.93 1.84 1.71 1.56 1.51 1.54 1.60 1.69 1.68 1.72 1.86 2.12 2.35 2.49 2.42 2.15 1.86 1.66 1.37 1.49 1.48 1.26 1.07 0.99 1.03 1.16 1.25 1.18 1.16
0.58 0.81 0.96 1.07 1.16 1.16 1.14 1.16 1.30 1.44 1.52 1.60 1.73 1.79 1.73 1.59 1.54 1.51 1.49 1.45 1.40 1.47 1.57 1.73 1.96 2.07 2.24 2.42 2.42 2.15 1.94 1.78 1.59 1.51 1.39 1.43 1.43 1.17 1.00 1.01 1.11 1.14 1.15